<?xml version="1.0"?>
<gpx xmlns="http://www.topografix.com/GPX/1/1" xmlns:xsi="http://www.w3.org/2001/XMLSchema-instance" version="1.1" creator="GPX RubyGem 1.0.0 -- http://dougfales.github.io/gpx/" xsi:schemaLocation="http://www.topografix.com/GPX/1/1 http://www.topografix.com/GPX/1/1/gpx.xsd">
  <metadata>
    <name/>
    <time>2026-05-10T10:39:14+00:00</time>
    <bound minlat="90.0" minlon="180.0" maxlat="-90.0" maxlon="-180.0"/>
  </metadata>
  <trk>
    <name/>
    <trkseg>
      <trkpt lat="50.87669" lon="13.946463">
        <time>1970-01-01T00:00:00+00:00</time>
        <ele>305.0</ele>
      </trkpt>
      <trkpt lat="50.876718" lon="13.946183">
        <time>1970-01-01T00:00:00+00:00</time>
        <ele>307.0</ele>
      </trkpt>
      <trkpt lat="50.876578" lon="13.946147">
        <time>1970-01-01T00:00:00+00:00</time>
        <ele>304.0</ele>
      </trkpt>
      <trkpt lat="50.876548" lon="13.94614">
        <time>1970-01-01T00:00:00+00:00</time>
        <ele>304.0</ele>
      </trkpt>
      <trkpt lat="50.876545" lon="13.946099">
        <time>1970-01-01T00:00:00+00:00</time>
        <ele>304.0</ele>
      </trkpt>
      <trkpt lat="50.876547" lon="13.945986">
        <time>1970-01-01T00:00:00+00:00</time>
        <ele>305.0</ele>
      </trkpt>
      <trkpt lat="50.876531" lon="13.945893">
        <time>1970-01-01T00:00:00+00:00</time>
        <ele>305.0</ele>
      </trkpt>
      <trkpt lat="50.876398" lon="13.945856">
        <time>1970-01-01T00:00:00+00:00</time>
        <ele>302.0</ele>
      </trkpt>
      <trkpt lat="50.876413" lon="13.945739">
        <time>1970-01-01T00:00:00+00:00</time>
        <ele>302.0</ele>
      </trkpt>
      <trkpt lat="50.876479" lon="13.945171">
        <time>1970-01-01T00:00:00+00:00</time>
        <ele>305.0</ele>
      </trkpt>
      <trkpt lat="50.876465" lon="13.944948">
        <time>1970-01-01T00:00:00+00:00</time>
        <ele>305.0</ele>
      </trkpt>
      <trkpt lat="50.876424" lon="13.944803">
        <time>1970-01-01T00:00:00+00:00</time>
        <ele>305.0</ele>
      </trkpt>
      <trkpt lat="50.876357" lon="13.944643">
        <time>1970-01-01T00:00:00+00:00</time>
        <ele>304.0</ele>
      </trkpt>
      <trkpt lat="50.876336" lon="13.944583">
        <time>1970-01-01T00:00:00+00:00</time>
        <ele>304.0</ele>
      </trkpt>
      <trkpt lat="50.87637" lon="13.944551">
        <time>1970-01-01T00:00:00+00:00</time>
        <ele>305.0</ele>
      </trkpt>
      <trkpt lat="50.876422" lon="13.944086">
        <time>1970-01-01T00:00:00+00:00</time>
        <ele>310.0</ele>
      </trkpt>
      <trkpt lat="50.876433" lon="13.943394">
        <time>1970-01-01T00:00:00+00:00</time>
        <ele>313.0</ele>
      </trkpt>
      <trkpt lat="50.87641" lon="13.943328">
        <time>1970-01-01T00:00:00+00:00</time>
        <ele>312.0</ele>
      </trkpt>
      <trkpt lat="50.876401" lon="13.943308">
        <time>1970-01-01T00:00:00+00:00</time>
        <ele>312.0</ele>
      </trkpt>
      <trkpt lat="50.876424" lon="13.94328">
        <time>1970-01-01T00:00:00+00:00</time>
        <ele>313.0</ele>
      </trkpt>
      <trkpt lat="50.87641" lon="13.942932">
        <time>1970-01-01T00:00:00+00:00</time>
        <ele>313.0</ele>
      </trkpt>
      <trkpt lat="50.876414" lon="13.94289">
        <time>1970-01-01T00:00:00+00:00</time>
        <ele>313.0</ele>
      </trkpt>
      <trkpt lat="50.876394" lon="13.942661">
        <time>1970-01-01T00:00:00+00:00</time>
        <ele>315.0</ele>
      </trkpt>
      <trkpt lat="50.876436" lon="13.942111">
        <time>1970-01-01T00:00:00+00:00</time>
        <ele>317.0</ele>
      </trkpt>
      <trkpt lat="50.876475" lon="13.942002">
        <time>1970-01-01T00:00:00+00:00</time>
        <ele>317.0</ele>
      </trkpt>
      <trkpt lat="50.876498" lon="13.942005">
        <time>1970-01-01T00:00:00+00:00</time>
        <ele>317.0</ele>
      </trkpt>
      <trkpt lat="50.877663" lon="13.940635">
        <time>1970-01-01T00:00:00+00:00</time>
        <ele>321.0</ele>
      </trkpt>
      <trkpt lat="50.878591" lon="13.939404">
        <time>1970-01-01T00:00:00+00:00</time>
        <ele>333.0</ele>
      </trkpt>
      <trkpt lat="50.878876" lon="13.939394">
        <time>1970-01-01T00:00:00+00:00</time>
        <ele>337.0</ele>
      </trkpt>
      <trkpt lat="50.879058" lon="13.939295">
        <time>1970-01-01T00:00:00+00:00</time>
        <ele>341.0</ele>
      </trkpt>
      <trkpt lat="50.879519" lon="13.939204">
        <time>1970-01-01T00:00:00+00:00</time>
        <ele>357.0</ele>
      </trkpt>
      <trkpt lat="50.880095" lon="13.93918">
        <time>1970-01-01T00:00:00+00:00</time>
        <ele>363.0</ele>
      </trkpt>
      <trkpt lat="50.880794" lon="13.938816">
        <time>1970-01-01T00:00:00+00:00</time>
        <ele>382.0</ele>
      </trkpt>
      <trkpt lat="50.88112" lon="13.938639">
        <time>1970-01-01T00:00:00+00:00</time>
        <ele>387.0</ele>
      </trkpt>
      <trkpt lat="50.880936" lon="13.939281">
        <time>1970-01-01T00:00:00+00:00</time>
        <ele>382.0</ele>
      </trkpt>
      <trkpt lat="50.8807" lon="13.9397">
        <time>1970-01-01T00:00:00+00:00</time>
        <ele>376.0</ele>
      </trkpt>
      <trkpt lat="50.880374" lon="13.940364">
        <time>1970-01-01T00:00:00+00:00</time>
        <ele>370.0</ele>
      </trkpt>
      <trkpt lat="50.88024" lon="13.941007">
        <time>1970-01-01T00:00:00+00:00</time>
        <ele>375.0</ele>
      </trkpt>
      <trkpt lat="50.880237" lon="13.941384">
        <time>1970-01-01T00:00:00+00:00</time>
        <ele>377.0</ele>
      </trkpt>
      <trkpt lat="50.880237" lon="13.941384">
        <time>1970-01-01T00:00:00+00:00</time>
        <ele>377.0</ele>
      </trkpt>
      <trkpt lat="50.88024" lon="13.941007">
        <time>1970-01-01T00:00:00+00:00</time>
        <ele>375.0</ele>
      </trkpt>
      <trkpt lat="50.880374" lon="13.940364">
        <time>1970-01-01T00:00:00+00:00</time>
        <ele>370.0</ele>
      </trkpt>
      <trkpt lat="50.8807" lon="13.9397">
        <time>1970-01-01T00:00:00+00:00</time>
        <ele>376.0</ele>
      </trkpt>
      <trkpt lat="50.880936" lon="13.939281">
        <time>1970-01-01T00:00:00+00:00</time>
        <ele>382.0</ele>
      </trkpt>
      <trkpt lat="50.88112" lon="13.938639">
        <time>1970-01-01T00:00:00+00:00</time>
        <ele>387.0</ele>
      </trkpt>
      <trkpt lat="50.880794" lon="13.938816">
        <time>1970-01-01T00:00:00+00:00</time>
        <ele>382.0</ele>
      </trkpt>
      <trkpt lat="50.880095" lon="13.93918">
        <time>1970-01-01T00:00:00+00:00</time>
        <ele>363.0</ele>
      </trkpt>
      <trkpt lat="50.879519" lon="13.939204">
        <time>1970-01-01T00:00:00+00:00</time>
        <ele>357.0</ele>
      </trkpt>
      <trkpt lat="50.879058" lon="13.939295">
        <time>1970-01-01T00:00:00+00:00</time>
        <ele>341.0</ele>
      </trkpt>
      <trkpt lat="50.878876" lon="13.939394">
        <time>1970-01-01T00:00:00+00:00</time>
        <ele>337.0</ele>
      </trkpt>
      <trkpt lat="50.878591" lon="13.939404">
        <time>1970-01-01T00:00:00+00:00</time>
        <ele>333.0</ele>
      </trkpt>
      <trkpt lat="50.877663" lon="13.940635">
        <time>1970-01-01T00:00:00+00:00</time>
        <ele>321.0</ele>
      </trkpt>
      <trkpt lat="50.876498" lon="13.942005">
        <time>1970-01-01T00:00:00+00:00</time>
        <ele>317.0</ele>
      </trkpt>
      <trkpt lat="50.876475" lon="13.942002">
        <time>1970-01-01T00:00:00+00:00</time>
        <ele>317.0</ele>
      </trkpt>
      <trkpt lat="50.876436" lon="13.942111">
        <time>1970-01-01T00:00:00+00:00</time>
        <ele>317.0</ele>
      </trkpt>
      <trkpt lat="50.876394" lon="13.942661">
        <time>1970-01-01T00:00:00+00:00</time>
        <ele>315.0</ele>
      </trkpt>
      <trkpt lat="50.876414" lon="13.94289">
        <time>1970-01-01T00:00:00+00:00</time>
        <ele>313.0</ele>
      </trkpt>
      <trkpt lat="50.87641" lon="13.942932">
        <time>1970-01-01T00:00:00+00:00</time>
        <ele>313.0</ele>
      </trkpt>
      <trkpt lat="50.876424" lon="13.94328">
        <time>1970-01-01T00:00:00+00:00</time>
        <ele>313.0</ele>
      </trkpt>
      <trkpt lat="50.876401" lon="13.943308">
        <time>1970-01-01T00:00:00+00:00</time>
        <ele>312.0</ele>
      </trkpt>
      <trkpt lat="50.87641" lon="13.943328">
        <time>1970-01-01T00:00:00+00:00</time>
        <ele>312.0</ele>
      </trkpt>
      <trkpt lat="50.876433" lon="13.943394">
        <time>1970-01-01T00:00:00+00:00</time>
        <ele>313.0</ele>
      </trkpt>
      <trkpt lat="50.876422" lon="13.944086">
        <time>1970-01-01T00:00:00+00:00</time>
        <ele>310.0</ele>
      </trkpt>
      <trkpt lat="50.87637" lon="13.944551">
        <time>1970-01-01T00:00:00+00:00</time>
        <ele>305.0</ele>
      </trkpt>
      <trkpt lat="50.876336" lon="13.944583">
        <time>1970-01-01T00:00:00+00:00</time>
        <ele>304.0</ele>
      </trkpt>
      <trkpt lat="50.876357" lon="13.944643">
        <time>1970-01-01T00:00:00+00:00</time>
        <ele>304.0</ele>
      </trkpt>
      <trkpt lat="50.876424" lon="13.944803">
        <time>1970-01-01T00:00:00+00:00</time>
        <ele>305.0</ele>
      </trkpt>
      <trkpt lat="50.876465" lon="13.944948">
        <time>1970-01-01T00:00:00+00:00</time>
        <ele>305.0</ele>
      </trkpt>
      <trkpt lat="50.876479" lon="13.945171">
        <time>1970-01-01T00:00:00+00:00</time>
        <ele>305.0</ele>
      </trkpt>
      <trkpt lat="50.876413" lon="13.945739">
        <time>1970-01-01T00:00:00+00:00</time>
        <ele>302.0</ele>
      </trkpt>
      <trkpt lat="50.876398" lon="13.945856">
        <time>1970-01-01T00:00:00+00:00</time>
        <ele>302.0</ele>
      </trkpt>
      <trkpt lat="50.876531" lon="13.945893">
        <time>1970-01-01T00:00:00+00:00</time>
        <ele>305.0</ele>
      </trkpt>
      <trkpt lat="50.876547" lon="13.945986">
        <time>1970-01-01T00:00:00+00:00</time>
        <ele>305.0</ele>
      </trkpt>
      <trkpt lat="50.876545" lon="13.946099">
        <time>1970-01-01T00:00:00+00:00</time>
        <ele>304.0</ele>
      </trkpt>
      <trkpt lat="50.876548" lon="13.94614">
        <time>1970-01-01T00:00:00+00:00</time>
        <ele>304.0</ele>
      </trkpt>
      <trkpt lat="50.876578" lon="13.946147">
        <time>1970-01-01T00:00:00+00:00</time>
        <ele>304.0</ele>
      </trkpt>
      <trkpt lat="50.876718" lon="13.946183">
        <time>1970-01-01T00:00:00+00:00</time>
        <ele>307.0</ele>
      </trkpt>
      <trkpt lat="50.87669" lon="13.946463">
        <time>1970-01-01T00:00:00+00:00</time>
        <ele>305.0</ele>
      </trkpt>
    </trkseg>
  </trk>
</gpx>
